Regional Weather Roundup
Issued by NWS

Home | Current Version | Previous Version | Graphics & Text | Print | Product List | Glossary On
Versions: 1 2 3 4 5 6 7 8 9 10 11 12 13 14 15 16 17 18 19 20 21 22 23 24 25 26 27 28 29 30 31 32 33 34 35 36 37 38 39 40 41 42 43 44 45 46 47 48 49 50
000
ASUS43 KBIS 061510
RWRND

NORTH DAKOTA REGIONAL WEATHER ROUNDUP
NATIONAL WEATHER SERVICE BISMARCK ND
900 AM CST SAT FEB 06 2016

NOTE: "FAIR" INDICATES FEW OR NO CLOUDS BELOW 12,000 FEET WITH NO
SIGNIFICANT WEATHER AND/OR OBSTRUCTIONS TO VISIBILITY.


NDZ001>003-009>011-017-061600-
NORTHWEST NORTH DAKOTA

CITY           SKY/WX    TMP DP  RH WIND       PRES   REMARKS
WILLISTON      CLOUDY    40  28  62 S8        29.73F
MINOT          CLOUDY    43  26  51 SW18      29.69F
MINOT AFB      CLOUDY    40  30  67 W13G23    29.67F
$$

NDZ018>021-031>035-040>046-061600-
SOUTHWEST NORTH DAKOTA

CITY           SKY/WX    TMP DP  RH WIND       PRES   REMARKS
BISMARCK       CLOUDY    39  27  62 W5        29.82F
DICKINSON      CLOUDY    37  21  52 SW15      29.80F
GARRISON         N/A     37  27  67 W14       29.74F
HETTINGER ARPT CLOUDY    36  20  52 W10       29.89F
$$

NDZ004>008-012>016-024-026-027-054-061600-
NORTHEAST NORTH DAKOTA

CITY           SKY/WX    TMP DP  RH WIND       PRES   REMARKS
GRAND FORKS    CLOUDY    25  20  81 S12       29.81F WCI  14
GRND FRKS AFB  CLOUDY    24  21  85 S8        29.79F WCI  16
DEVILS LAKE    CLOUDY    31  25  78 SW13      29.73F
$$

NDZ022-023-025-028>030-036>039-047>053-061600-
SOUTHEAST NORTH DAKOTA

CITY           SKY/WX    TMP DP  RH WIND       PRES   REMARKS
FARGO          PTSUNNY   27  21  78 S12       29.86F WCI  17
JAMESTOWN      CLOUDY    34  24  67 SW15      29.79F
$$




USA.gov is the U.S. government's official web portal to all federal, state and local government web resources and services.